DW5595 Weather Reports


Display with metric or nautical units.
time (UTC)temp
F
wind
direction
speed
MPH
gust
MPH
rain 1hr
in
rain 24hr
in
rain mn
in
humidity
%
barometer
mb
20260903051527 72 158 0.0 0.0 0.00 0.00 0.00 95 1018.0
20260903050019 73 158 0.0 0.0 0.00 0.00 0.00 95 1018.0
20260903044514 73 165 0.0 0.0 0.00 0.00 0.00 95 1018.2
20260903043031 73 165 0.0 0.0 0.00 0.00 0.00 94 1018.4
20260903041532 73 206 0.0 0.0 0.00 0.00 0.00 94 1018.4
20260903040033 73 313 0.0 0.0 0.00 0.00 0.00 94 1018.4
20260903034533 74 313 0.0 0.0 0.00 0.00 0.00 94 1018.5
20260903033033 74 313 0.0 0.0 0.00 0.00 0.00 94 1018.6
20260903031526 74 313 0.0 0.0 0.00 0.00 0.00 93 1018.8
20260903030017 75 313 0.0 0.0 0.00 0.00 0.00 93 1018.9
20260903024539 75 313 0.0 0.0 0.00 0.00 0.00 92 1019.1
20260903021536 76 313 0.0 0.0 0.00 0.00 0.00 91 1019.1
20260903020028 76 313 0.0 0.0 0.00 0.00 0.00 91 1018.9
20260903014542 76 313 0.0 0.0 0.00 0.00 0.00 91 1018.7
20260903013023 77 313 0.0 0.0 0.00 0.00 0.00 90 1018.5
20260903011534 78 313 0.0 0.0 0.00 0.00 0.00 88 1018.3
20260903010037 78 313 0.0 0.0 0.00 0.00 0.00 88 1018.2
20260903004537 79 313 0.0 0.0 0.00 0.00 0.00 86 1018.0
20260903001533 81 313 0.0 0.0 0.00 0.00 0.00 82 1017.9
20260903000033 83 313 0.0 0.0 0.00 0.00 0.00 81 1017.6
20260902234527 84 313 0.0 0.0 0.00 0.00 0.00 76 1017.5
20260902233020 86 313 0.0 0.0 0.00 0.00 0.00 75 1017.6
20260902231538 86 313 0.0 0.0 0.00 0.00 0.00 70 1017.7
20260902230032 87 313 0.0 0.0 0.00 0.00 0.00 66 1017.6
20260902224534 88 313 0.0 0.0 0.00 0.00 0.00 63 1017.6
20260902223005 89 313 0.0 0.0 0.00 0.00 0.00 61 1017.6
20260902221505 90 313 0.0 2.0 0.00 0.00 0.00 61 1017.6
20260902220005 91 313 0.0 1.0 0.00 0.00 0.00 58 1017.8
20260902214504 92 11 0.0 1.0 0.00 0.00 0.00 58 1017.8
20260902213007 93 325 0.0 2.0 0.00 0.00 0.00 52 1017.8
20260902211504 93 5 1.0 4.0 0.00 0.00 0.00 53 1017.9
20260902210005 92 34 1.0 3.0 0.00 0.00 0.00 55 1018.1
20260902204507 93 346 3.0 5.0 0.00 0.00 0.00 52 1018.1
20260902203007 92 137 3.0 4.0 0.00 0.00 0.00 53 1018.0
20260902201504 93 194 0.0 2.0 0.00 0.00 0.00 51 1018.0
20260902200013 93 261 1.0 5.0 0.00 0.00 0.00 51 1018.3
20260902194508 93 312 1.0 7.0 0.00 0.00 0.00 53 1018.4
20260902193008 93 268 0.0 8.0 0.00 0.00 0.00 52 1018.5
20260902191510 93 152 0.0 3.0 0.00 0.00 0.00 49 1018.7
20260902190009 93 311 2.0 5.0 0.00 0.00 0.00 50 1018.8
20260902184518 93 276 1.0 2.0 0.00 0.00 0.00 55 1018.9
20260902183010 93 272 0.0 6.0 0.00 0.00 0.00 54 1019.1
20260902181508 93 5 0.0 6.0 0.00 0.00 0.00 54 1019.3
20260902180008 92 317 2.0 5.0 0.00 0.00 0.00 55 1019.3
20260902174513 92 228 0.0 3.0 0.00 0.00 0.00 55 1019.4
20260902173009 92 169 0.0 5.0 0.00 0.00 0.00 56 1019.6
20260902171509 91 309 1.0 6.0 0.00 0.00 0.00 56 1019.8
20260902170010 91 312 1.0 6.0 0.00 0.00 0.00 56 1020.0
20260902164516 91 329 2.0 5.0 0.00 0.00 0.00 56 1020.1
20260902163012 91 344 0.0 2.0 0.00 0.00 0.00 59 1020.2
20260902161518 90 352 0.0 2.0 0.00 0.00 0.00 59 1020.3
20260902160010 90 36 0.0 3.0 0.00 0.00 0.00 60 1020.4
20260902154514 90 163 0.0 0.0 0.00 0.00 0.00 61 1020.4
20260902153009 89 199 0.0 2.0 0.00 0.00 0.00 63 1020.6
20260902151514 87 32 2.0 3.0 0.00 0.00 0.00 67 1020.5
20260902150012 86 5 1.0 3.0 0.00 0.00 0.00 68 1020.5
20260902144525 85 30 0.0 4.0 0.00 0.00 0.00 69 1020.6
20260902143011 84 340 2.0 5.0 0.00 0.00 0.00 74 1020.5
20260902141518 83 317 2.0 4.0 0.00 0.00 0.00 75 1020.5
20260902140018 82 10 0.0 2.0 0.00 0.00 0.00 78 1020.4
20260902134514 81 352 2.0 4.0 0.00 0.00 0.00 79 1020.4
20260902133017 79 316 0.0 2.0 0.00 0.00 0.00 82 1020.3
20260902131538 77 141 0.0 0.0 0.00 0.00 0.00 88 1020.3
20260902130019 74 338 0.0 2.0 0.00 0.00 0.00 93 1020.2
20260902124519 72 149 0.0 0.0 0.00 0.00 0.00 96 1020.4
20260902123037 71 149 0.0 0.0 0.00 0.00 0.00 96 1020.3
20260902121523 70 149 0.0 0.0 0.00 0.00 0.00 97 1020.3
20260902120021 69 149 0.0 0.0 0.00 0.00 0.00 97 1020.1
20260902114521 69 149 0.0 0.0 0.00 0.00 0.00 96 1020.0
20260902113023 69 149 0.0 0.0 0.00 0.00 0.00 96 1019.9
20260902111523 69 149 0.0 0.0 0.00 0.00 0.00 96 1019.8
20260902110025 69 149 0.0 0.0 0.00 0.00 0.00 96 1019.8
20260902104521 69 149 0.0 1.0 0.00 0.00 0.00 96 1019.7
20260902103013 69 161 0.0 0.0 0.00 0.00 0.00 96 1019.7
20260902101513 69 161 0.0 0.0 0.00 0.00 0.00 96 1019.7
20260902100012 69 155 0.0 0.0 0.00 0.00 0.00 96 1019.5
20260902094510 69 155 0.0 0.0 0.00 0.00 0.00 96 1019.4
20260902093009 69 155 0.0 0.0 0.00 0.00 0.00 96 1019.3
20260902091512 69 155 0.0 0.0 0.00 0.00 0.00 96 1019.3
20260902090026 70 155 0.0 0.0 0.00 0.00 0.00 96 1019.1
20260902084514 70 155 0.0 0.0 0.00 0.00 0.00 96 1019.2
20260902083015 70 155 0.0 0.0 0.00 0.00 0.00 96 1019.1
20260902081524 70 155 0.0 0.0 0.00 0.00 0.00 95 1019.0
20260902080013 70 155 0.0 0.0 0.00 0.00 0.00 95 1018.9
20260902074508 70 155 0.0 0.0 0.00 0.00 0.00 95 1018.9
20260902073009 70 155 0.0 0.0 0.00 0.00 0.00 95 1018.8
20260902071536 71 155 0.0 0.0 0.00 0.00 0.00 95 1019.1
20260902070015 71 155 0.0 0.0 0.00 0.00 0.00 95 1018.9
20260902064519 71 155 0.0 0.0 0.00 0.00 0.00 95 1018.9
20260902063026 71 155 0.0 0.0 0.00 0.00 0.00 95 1019.0
20260902061518 71 155 0.0 0.0 0.00 0.00 0.00 95 1019.0
20260902060021 71 155 1.0 2.0 0.00 0.00 0.00 95 1019.0
20260902053022 72 167 0.0 0.0 0.00 0.00 0.00 95 1019.1